CW9873 Weather Reports


time (UTC)temp
F
wind
direction
speed
knots
gust
knots
rain 1hr
in
rain 24hr
in
rain mn
in
humidity
%
barometer
mb
20260505031442 51 225 2.6 6.1 0.00 0.00 0.00 84 1011.5
20260505030944 51 182 2.6 7.0 0.00 0.00 0.00 84 1011.5
20260505030442 51 189 3.5 8.7 0.00 0.00 0.00 84 1011.5
20260505030225 51 184 4.3 8.7 0.00 0.00 0.00 84 1011.6
20260505024943 51 196 3.5 7.8 0.00 0.00 0.00 83 1011.6
20260505024441 51 179 3.5 7.8 0.00 0.00 0.00 83 1011.5
20260505023942 51 205 3.5 7.8 0.00 0.00 0.00 83 1011.5
20260505023443 51 148 3.5 7.8 0.00 0.00 0.00 83 1011.5
20260505022943 52 232 3.5 8.7 0.00 0.00 0.00 83 1011.4
20260505022436 52 209 3.5 11.3 0.00 0.00 0.00 83 1011.5
20260505021931 52 200 3.5 11.3 0.00 0.00 0.00 82 1011.5
20260505021426 52 197 3.5 9.6 0.00 0.00 0.00 82 1011.6
20260505020927 52 194 3.5 10.4 0.00 0.00 0.00 82 1011.6
20260505020651 52 202 3.5 10.4 0.00 0.00 0.00 82 1011.6
20260505015926 52 225 3.5 9.6 0.00 0.00 0.00 82 1011.6
20260505015426 52 231 3.5 10.4 0.00 0.00 0.00 82 1011.6
20260505014925 52 209 4.3 10.4 0.00 0.00 0.00 81 1011.5
20260505014427 52 229 3.5 9.6 0.00 0.00 0.00 81 1011.5
20260505013926 52 180 3.5 7.8 0.00 0.00 0.00 81 1011.5
20260505013425 52 190 3.5 9.6 0.00 0.00 0.00 81 1011.5
20260505012924 52 225 3.5 9.6 0.00 0.00 0.00 81 1011.4
20260505012426 52 225 3.5 10.4 0.00 0.00 0.00 80 1011.3
20260505011924 52 207 4.3 10.4 0.00 0.00 0.00 80 1011.2
20260505011426 52 146 4.3 10.4 0.00 0.00 0.00 80 1011.1
20260505010928 52 198 3.5 10.4 0.00 0.00 0.00 80 1011.1
20260505010424 52 249 3.5 11.3 0.00 0.00 0.00 80 1011.1
20260505005926 53 209 4.3 11.3 0.00 0.00 0.00 79 1010.9
20260505005424 53 208 4.3 12.2 0.00 0.00 0.00 79 1010.8
20260505004928 53 271 4.3 12.2 0.00 0.00 0.00 79 1010.7
20260505004425 53 215 3.5 8.7 0.00 0.00 0.00 79 1010.7
20260505003924 53 213 4.3 8.7 0.00 0.00 0.00 78 1010.5
20260505003424 53 212 5.2 11.3 0.00 0.00 0.00 78 1010.5
20260505003155 54 201 5.2 13.0 0.00 0.00 0.00 77 1010.4
20260505002426 54 208 6.1 13.0 0.00 0.00 0.00 77 1010.4
20260505001923 54 196 5.2 12.2 0.00 0.00 0.00 76 1010.3
20260505001424 54 221 4.3 12.2 0.00 0.00 0.00 76 1010.2
20260505000925 54 211 4.3 11.3 0.00 0.00 0.00 75 1010.1
20260505000424 54 217 4.3 12.2 0.00 0.00 0.00 75 1010.1
20260504235927 55 173 4.3 12.2 0.00 0.00 0.00 74 1010.0
20260504235428 55 220 3.5 11.3 0.00 0.00 0.00 74 1010.0
20260504234926 55 211 3.5 9.6 0.00 0.00 0.00 73 1009.9
20260504234425 55 218 4.3 9.6 0.00 0.00 0.00 73 1009.9
20260504233927 55 186 4.3 9.6 0.00 0.00 0.00 72 1009.9
20260504233421 56 190 4.3 9.6 0.00 0.00 0.00 72 1009.9
20260504232925 56 152 4.3 12.2 0.00 0.00 0.00 71 1009.8
20260504231417 57 230 4.3 11.3 0.00 0.00 0.00 68 1009.7
20260504230918 57 197 5.2 12.2 0.00 0.00 0.00 67 1009.6
20260504230419 57 225 5.2 13.0 0.00 0.00 0.00 66 1009.6
20260504225920 57 231 6.1 15.6 0.00 0.00 0.00 66 1009.6
20260504225421 57 203 6.1 15.6 0.00 0.00 0.00 65 1009.5
20260504224919 58 207 6.1 14.8 0.00 0.00 0.00 65 1009.5
20260504224419 58 169 6.1 14.8 0.00 0.00 0.00 65 1009.6
20260504223920 58 167 5.2 13.9 0.00 0.00 0.00 64 1009.6
20260504223418 58 254 5.2 13.0 0.00 0.00 0.00 64 1009.5
20260504222918 58 200 5.2 14.8 0.00 0.00 0.00 63 1009.4
20260504222418 58 188 6.1 14.8 0.00 0.00 0.00 62 1009.4
20260504221918 59 208 6.1 14.8 0.00 0.00 0.00 60 1009.4
20260504221417 59 162 5.2 14.8 0.00 0.00 0.00 59 1009.5
20260504220919 60 198 5.2 12.2 0.00 0.00 0.00 59 1009.5
20260504220418 60 222 5.2 12.2 0.00 0.00 0.00 57 1009.3
20260504215918 61 221 5.2 12.2 0.00 0.00 0.00 55 1009.3
20260504215418 61 178 5.2 13.0 0.00 0.00 0.00 53 1009.3
20260504214914 61 188 4.3 13.0 0.00 0.00 0.00 53 1009.2
20260504214414 61 195 4.3 10.4 0.00 0.00 0.00 55 1009.3
20260504213914 61 211 5.2 13.0 0.00 0.00 0.00 55 1009.2
20260504213414 62 166 4.3 13.0 0.00 0.00 0.00 54 1009.3
20260504212915 62 222 4.3 10.4 0.00 0.00 0.00 54 1009.3
20260504212414 62 233 4.3 10.4 0.00 0.00 0.00 54 1009.2
20260504211914 62 153 4.3 11.3 0.00 0.00 0.00 53 1009.2
20260504211414 63 136 4.3 11.3 0.00 0.00 0.00 53 1009.3
20260504210912 63 138 4.3 9.6 0.00 0.00 0.00 53 1009.2
20260504210412 63 188 5.2 16.5 0.00 0.00 0.00 52 1009.2
20260504205912 63 213 6.1 16.5 0.00 0.00 0.00 52 1009.2
20260504205640 64 225 7.0 17.4 0.00 0.00 0.00 51 1009.1
20260504205138 64 250 6.1 17.4 0.00 0.00 0.00 50 1009.1
20260504204411 64 225 6.1 17.4 0.00 0.00 0.00 49 1009.1
20260504204140 64 202 7.0 17.4 0.00 0.00 0.00 49 1009.0
20260504203643 64 179 7.0 14.8 0.00 0.00 0.00 50 1008.9
20260504202906 65 197 5.2 15.6 0.00 0.00 0.00 50 1008.8
20260504202407 65 199 6.1 15.6 0.00 0.00 0.00 50 1008.9
20260504201906 64 224 6.1 17.4 0.00 0.00 0.00 51 1009.0
20260504201406 64 210 5.2 17.4 0.00 0.00 0.00 50 1008.9
20260504200904 65 217 5.2 13.9 0.00 0.00 0.00 50 1008.9
20260504200404 65 206 6.1 13.0 0.00 0.00 0.00 52 1008.9
20260504195904 64 250 6.1 16.5 0.00 0.00 0.00 50 1009.0
20260504195404 64 215 5.2 16.5 0.00 0.00 0.00 50 1008.9
20260504194903 64 194 5.2 16.5 0.00 0.00 0.00 50 1008.9
20260504194403 64 178 6.1 17.4 0.00 0.00 0.00 49 1009.0
20260504194129 64 181 7.0 17.4 0.00 0.00 0.00 48 1008.9
20260504193401 65 193 7.0 19.1 0.00 0.00 0.00 47 1009.0
20260504192401 65 205 7.0 17.4 0.00 0.00 0.00 46 1008.9
20260504191904 65 172 7.0 21.7 0.00 0.00 0.00 47 1009.0
20260504191401 66 236 6.1 21.7 0.00 0.00 0.00 45 1009.1
20260504190903 66 173 6.1 17.4 0.00 0.00 0.00 47 1009.1
20260504190400 66 227 7.0 21.7 0.00 0.00 0.00 44 1009.3
20260504185902 66 196 7.8 21.7 0.00 0.00 0.00 42 1009.2
20260504185408 66 239 7.0 18.2 0.00 0.00 0.00 40 1009.5
20260504184907 66 229 6.1 15.6 0.00 0.00 0.00 42 1009.4
20260504184402 66 287 7.0 15.6 0.00 0.00 0.00 41 1009.4
20260504184138 66 176 7.8 19.1 0.00 0.00 0.00 43 1009.4
20260504183403 66 223 7.0 19.1 0.00 0.00 0.00 41 1009.4
20260504182901 67 157 7.0 19.1 0.00 0.00 0.00 39 1009.5
20260504182414 67 200 7.8 19.1 0.00 0.00 0.00 39 1009.7
20260504181629 67 175 7.0 19.1 0.00 0.00 0.00 40 1009.5
20260504180902 67 170 7.0 14.8 0.00 0.00 0.00 38 1009.7
20260504180359 69 184 6.1 13.9 0.00 0.00 0.00 39 1009.8
20260504175853 68 210 7.0 20.0 0.00 0.00 0.00 39 1009.6
20260504175617 68 166 7.0 20.0 0.00 0.00 0.00 38 1009.6
20260504174846 68 260 7.0 20.0 0.00 0.00 0.00 40 1009.6
20260504174345 68 263 7.0 20.0 0.00 0.00 0.00 37 1009.5
20260504173846 68 286 7.0 20.0 0.00 0.00 0.00 38 1009.5
20260504173345 69 229 7.0 20.0 0.00 0.00 0.00 37 1009.6
20260504172843 69 219 7.0 17.4 0.00 0.00 0.00 38 1009.4
20260504172617 69 197 7.0 21.7 0.00 0.00 0.00 36 1009.7
20260504171845 68 254 7.8 21.7 0.00 0.00 0.00 39 1009.6
20260504171343 68 194 7.0 21.7 0.00 0.00 0.00 37 1009.7
20260504170841 69 180 6.1 16.5 0.00 0.00 0.00 36 1009.7
20260504170344 69 229 7.0 17.4 0.00 0.00 0.00 34 1009.7
20260504160329 68 184 6.1 16.5 0.00 0.00 0.00 39 1010.2
20260504150829 68 346 4.3 13.0 0.00 0.00 0.00 37 1010.5
20260504150339 67 269 5.2 16.5 0.00 0.00 0.00 40 1010.7
20260504141326 64 226 5.2 12.2 0.00 0.00 0.00 43 1011.0
20260504140830 64 253 5.2 13.9 0.00 0.00 0.00 45 1011.1
20260504130803 59 200 3.5 9.6 0.00 0.00 0.00 53 1011.6
20260504130302 59 209 3.5 9.6 0.00 0.00 0.00 53 1011.6
20260504120301 53 217 3.5 11.3 0.00 0.00 0.00 62 1012.0
20260504110300 46 231 1.7 4.3 0.00 0.00 0.00 78 1011.7
20260504100253 42 211 1.7 7.0 0.00 0.00 0.00 82 1011.5
20260504081738 42 205 0.0 1.7 0.00 0.00 0.00 80 1011.3
20260504081237 42 216 0.0 0.9 0.00 0.00 0.00 80 1011.3
20260504080737 43 209 0.9 2.6 0.00 0.00 0.00 80 1011.3
20260504080454 43 209 0.9 2.6 0.00 0.00 0.00 80 1011.2
20260504070232 40 165 0.0 1.7 0.00 0.00 0.00 81 1011.2
20260504060228 39 200 0.0 0.9 0.00 0.00 0.00 79 1010.9
20260504050722 39 221 0.0 1.7 0.00 0.00 0.00 75 1011.0
20260504050218 39 221 0.0 1.7 0.00 0.00 0.00 75 1011.1
20260504045714 39 223 0.0 0.9 0.00 0.00 0.00 75 1011.1
20260504045216 39 223 0.0 0.9 0.00 0.00 0.00 75 1011.1
20260504044715 39 223 0.0 0.9 0.00 0.00 0.00 74 1011.2
20260504044213 39 223 0.0 0.9 0.00 0.00 0.00 74 1011.1
20260504043937 39 223 0.0 0.9 0.00 0.00 0.00 74 1011.1
20260504043205 39 223 0.0 0.9 0.00 0.00 0.00 74 1011.2
20260504042705 39 223 0.0 0.9 0.00 0.00 0.00 74 1011.1
20260504042439 39 223 0.0 2.6 0.00 0.00 0.00 74 1011.1
20260504041707 39 248 0.0 2.6 0.00 0.00 0.00 74 1011.0
20260504041202 38 218 0.0 0.9 0.00 0.00 0.00 74 1011.0
20260504040700 38 218 0.0 2.6 0.00 0.00 0.00 74 1011.0
20260504035700 38 221 0.0 1.7 0.00 0.00 0.00 74 1011.1
20260504035155 39 274 0.0 0.9 0.00 0.00 0.00 74 1011.0
20260504034654 38 274 0.0 0.9 0.00 0.00 0.00 74 1011.0
20260504034428 38 274 0.0 0.9 0.00 0.00 0.00 74 1010.9
20260504033656 38 274 0.0 0.9 0.00 0.00 0.00 74 1010.8
20260504032650 39 274 0.0 0.9 0.00 0.00 0.00 74 1010.8
20260504032417 39 274 0.0 0.9 0.00 0.00 0.00 74 1010.8
20260504031917 39 274 0.0 0.9 0.00 0.00 0.00 74 1010.7